Theta_e
317 315 313 319 320 319 318 316 316 319 323 322 322 322 325 329 329 329 330 331 332 333 338 340 342 342 343 344 346 346 346 349 349 348 347 347 348 355 358 360 363 363 363 362
314 312 318 320 321 319 318 315 315 320 323 321 321 321 325 328 328 329 329 330 331 332 335 338 340 340 340 341 343 345 346 350 350 350 350 351 355 357 362 365 363 363 364 365
309 313 316 317 317 316 316 314 314 314 320 322 320 318 322 327 329 330 331 331 332 332 332 334 337 339 339 339 341 342 347 351 352 354 353 356 357 358 356 357 359 361 363 362
308 311 311 314 314 316 312 317 316 316 315 310 319 307 316 323 324 327 329 330 331 332 334 334 335 336 337 339 341 343 345 349 352 355 353 356 350 349 352 357 358 360 361 358
306 309 310 311 314 317 313 319 318 318 315 314 314 311 315 321 321 324 328 330 332 333 334 334 335 336 338 339 339 341 345 349 354 354 358 354 353 353 357 355 358 359 358 353
309 310 314 315 316 319 321 319 317 317 316 307 311 312 312 317 321 325 328 330 331 333 335 336 337 338 338 340 340 340 344 350 352 354 355 356 356 355 354 354 353 354 354 356
304 307 308 309 310 320 319 313 304 301 305 303 313 312 314 320 323 325 327 329 332 332 333 334 335 335 338 338 339 340 345 348 352 352 353 354 357 358 358 359 354 353 350 351
301 298 306 309 310 310 313 310 303 295 298 303 311 309 313 321 323 325 327 330 332 332 333 333 334 335 337 338 340 341 344 347 348 350 353 358 358 354 355 357 355 354 352 352
300 300 305 306 310 312 310 307 312 304 303 304 309 314 318 321 321 321 323 328 330 331 333 334 335 335 336 339 341 342 344 348 348 348 355 355 356 356 354 359 358 356 355 352
307 301 305 304 307 306 311 312 304 305 298 297 303 305 308 316 318 320 322 326 329 332 333 333 335 336 337 339 340 342 345 347 347 348 350 351 353 356 357 358 357 356 355 353
304 304 303 303 303 304 305 306 303 305 303 299 297 302 315 318 319 319 320 324 329 331 332 334 335 337 338 339 340 341 343 345 346 348 351 353 352 354 356 355 357 356 355 355
304 303 301 303 303 306 308 306 306 301 300 300 300 302 314 315 319 320 319 323 329 332 333 335 335 337 337 339 340 342 344 345 348 350 354 352 354 356 354 356 356 355 353 354
303 301 299 301 302 303 303 304 306 304 303 301 299 302 313 313 313 316 316 323 330 332 333 334 335 336 338 339 345 346 346 347 348 353 350 351 353 354 355 357 357 356 356 354
315 301 302 301 303 305 303 303 304 304 301 302 302 305 311 314 314 316 319 323 328 332 333 334 335 336 339 342 347 348 348 350 352 351 350 354 355 356 356 358 358 356 357 354
309 306 305 306 306 306 307 304 301 302 305 302 306 305 310 314 315 317 317 323 326 328 331 334 334 337 341 343 347 348 350 354 356 356 357 358 361 361 361 359 358 358 356 355
308 307 306 306 307 307 302 306 305 303 304 303 305 306 314 315 315 314 316 319 325 328 331 334 339 340 340 342 346 350 352 354 357 357 357 361 362 361 360 359 359 358 356 355
304 306 305 303 306 307 304 308 305 306 308 307 304 312 316 316 315 316 318 320 322 328 333 336 337 339 340 343 350 350 352 354 355 358 359 359 362 360 361 360 359 358 357 356
303 303 305 303 306 298 309 313 310 307 309 309 311 314 315 315 316 315 317 319 322 325 331 338 336 337 340 342 345 351 352 354 356 358 359 360 361 360 361 360 360 360 359 357
303 303 302 301 302 306 310 312 312 311 311 320 319 322 325 325 322 321 324 322 323 326 332 336 337 337 345 345 350 352 349 354 353 356 358 361 362 361 361 359 360 361 359 358
306 304 303 303 299 297 309 315 320 319 309 321 322 322 322 325 315 319 324 331 327 326 329 332 335 336 340 342 347 349 349 351 354 357 359 362 363 364 362 364 364 364 361 360
304 304 300 301 301 306 315 320 320 308 311 323 324 324 323 322 324 328 331 335 338 334 335 335 335 336 341 346 347 347 348 349 355 355 358 362 363 363 365 365 365 364 362 364
299 301 302 303 302 299 320 321 315 320 324 324 325 325 324 327 328 327 335 343 343 337 335 336 338 340 343 348 350 350 350 355 359 360 359 361 362 359 359 365 364 363 363 361
300 303 303 306 308 318 320 321 323 324 324 325 326 327 328 330 331 334 343 343 341 340 337 338 339 341 345 348 351 350 354 358 359 359 359 359 361 361 364 362 361 357 361 356
307 311 309 308 313 314 315 323 322 323 326 327 328 328 330 334 338 340 344 342 340 342 344 340 338 339 343 349 352 354 359 360 357 357 357 357 358 358 360 357 357 354 355 355
304 306 309 312 315 313 320 316 318 322 328 326 328 329 330 336 342 340 343 343 346 349 351 351 346 343 343 347 351 352 357 358 354 354 354 354 354 354 357 358 356 356 361 355
304 306 309 310 309 308 310 313 320 324 325 326 326 326 330 338 344 342 344 350 353 354 357 357 357 354 349 347 347 352 357 358 356 353 352 350 350 352 353 354 347 315 319 318
Wind_Speed
7 6 9 9 4 2 5 5 7 3 4 5 9 13 9 13 14 15 17 18 19 21 19 17 16 15 14 13 14 15 14 12 9 7 6 7 7 5 5 5 7 9 7 9
5 10 9 4 6 2 2 4 8 2 4 4 4 14 8 17 20 20 20 20 20 16 17 18 17 15 16 15 15 14 15 14 11 8 7 5 6 5 5 3 6 6 8 9
12 2 10 7 8 7 4 7 8 6 3 1 4 9 7 10 13 15 18 19 18 20 19 18 20 20 17 17 17 15 15 14 12 10 7 5 5 2 4 4 5 7 9 8
9 4 4 7 10 7 9 4 9 4 4 4 2 8 3 9 15 17 20 21 22 22 20 19 20 20 21 20 16 16 15 15 13 13 10 11 8 8 8 6 5 4 6 7
7 6 11 11 10 7 3 3 4 4 3 4 4 5 1 6 12 20 21 22 24 25 24 23 22 22 22 18 18 17 15 15 13 15 12 11 11 7 3 4 5 6 5 4
7 2 5 14 4 7 12 7 6 3 1 6 2 6 3 7 9 12 19 23 24 24 24 23 22 20 17 16 16 15 16 15 15 15 15 14 12 10 6 6 5 5 4 4
1 4 1 2 9 8 5 8 2 3 3 3 2 5 10 9 9 11 13 21 24 23 22 22 22 20 18 19 19 16 16 15 15 16 16 16 14 12 10 6 6 6 5 5
9 8 9 7 12 7 11 8 5 5 4 3 2 7 5 1 3 6 9 14 16 22 22 22 23 22 20 20 20 19 18 16 17 16 15 13 14 9 9 8 6 5 5 5
6 7 2 7 10 11 8 8 4 3 1 4 2 6 15 10 7 7 9 11 13 19 23 24 22 20 20 20 20 20 18 16 17 18 13 13 12 12 10 9 8 6 5 4
9 9 5 1 6 3 10 12 6 2 5 7 5 6 9 16 14 5 6 11 14 15 18 19 20 20 19 20 20 20 19 19 19 18 15 14 14 13 12 9 9 8 7 7
7 9 4 4 9 12 7 7 2 2 3 6 9 8 9 15 15 14 7 9 13 16 17 18 19 19 19 18 19 19 18 18 17 17 14 13 13 13 12 10 9 9 8 9
6 4 9 15 3 3 13 18 16 9 7 4 5 9 13 14 13 10 7 8 13 14 14 15 17 17 17 18 18 17 17 18 17 17 15 15 13 12 13 12 10 10 9 8
8 6 4 6 5 3 7 8 10 7 4 11 12 9 4 7 11 11 10 7 10 12 12 13 15 17 18 18 16 16 17 18 17 16 16 15 14 14 14 13 11 10 9 10
5 5 6 6 2 1 7 10 14 16 10 14 12 18 19 13 11 9 8 5 8 11 14 14 15 16 16 15 14 15 15 15 15 16 16 14 15 15 14 12 12 12 11 10
4 6 4 6 7 8 11 9 12 13 19 12 18 9 15 15 10 12 4 6 9 12 16 17 17 16 15 15 14 13 13 13 15 15 14 15 13 13 12 12 12 11 11 9
6 2 1 5 7 4 8 14 14 18 12 17 14 8 13 15 8 10 11 7 10 14 17 18 15 16 17 18 16 14 14 15 15 15 15 13 13 13 13 12 13 12 10 10
6 4 2 6 2 7 8 11 17 16 16 15 10 14 5 6 6 10 11 11 12 14 16 16 19 19 18 18 16 17 16 15 15 14 13 14 13 13 13 13 13 13 13 12
6 4 3 5 5 12 2 3 7 13 11 14 8 10 10 10 14 15 12 10 11 12 14 14 15 17 17 16 17 13 15 15 15 14 14 14 14 14 13 13 13 13 12 13
15 6 5 6 8 6 5 3 2 0 5 12 12 14 15 14 10 14 12 14 14 13 15 16 16 15 14 15 15 15 16 15 15 15 15 15 15 14 14 14 14 12 12 12
7 11 6 3 10 13 6 1 1 7 6 11 12 14 17 14 5 6 12 11 9 11 12 13 14 15 16 17 17 17 17 17 16 16 16 15 15 15 15 14 13 12 11 11
5 5 14 12 9 7 1 11 4 9 2 13 12 13 14 9 10 19 17 12 5 6 9 11 15 16 16 17 19 19 18 19 19 17 14 14 15 15 14 13 11 12 12 10
7 6 7 10 10 15 11 6 6 7 5 10 12 11 16 18 19 19 13 7 5 6 9 14 14 14 16 17 16 17 19 17 14 14 15 15 14 13 12 13 11 11 10 10
8 5 3 5 1 4 4 6 5 9 11 11 14 15 16 18 16 15 3 3 3 5 9 8 9 10 12 16 16 18 16 15 16 16 15 15 14 13 11 13 12 11 11 10
3 3 5 4 4 4 7 4 8 13 11 13 12 16 16 16 16 9 2 5 7 6 8 6 9 10 10 11 13 10 10 12 15 16 15 14 14 13 13 11 11 11 11 11
4 8 4 6 4 8 10 10 13 16 12 14 13 14 15 14 13 6 3 5 9 8 7 6 5 6 8 10 12 13 12 14 15 14 13 14 12 14 13 13 11 12 13 13
5 5 4 2 4 4 9 13 16 10 12 13 14 17 15 12 9 1 5 6 9 11 9 10 10 7 4 4 8 10 11 13 13 14 12 12 12 12 12 11 7 8 7 6
Wind_Direction
183 200 201 208 203 176 207 233 242 173 170 235 241 261 212 189 201 199 197 194 202 206 203 205 208 211 211 209 204 201 202 204 191 190 198 212 215 212 208 207 198 192 197 192
159 224 216 158 149 163 184 254 259 220 145 217 275 269 252 189 205 204 200 201 207 208 202 211 202 206 211 210 208 207 204 197 196 194 195 200 195 213 219 186 196 205 204 199
224 147 169 167 169 187 219 256 283 290 141 206 274 273 222 208 213 212 214 212 210 208 205 207 208 208 211 212 209 204 204 197 197 191 183 163 166 176 194 206 206 209 204 188
248 193 227 188 199 229 269 230 255 227 238 275 293 297 258 200 212 214 214 210 210 211 210 209 204 207 207 215 209 206 199 198 194 183 190 198 207 212 213 204 204 204 206 204
211 188 202 225 230 192 267 46 117 166 190 292 191 260 233 194 219 226 223 218 215 210 209 206 207 207 210 206 207 206 195 196 190 190 194 197 210 218 210 189 197 201 194 192
222 255 212 234 128 188 139 113 100 128 222 259 288 250 240 190 216 227 218 221 219 217 215 213 211 208 209 205 203 201 195 192 189 188 192 201 207 207 202 189 198 202 202 216
173 218 268 208 109 126 179 175 213 248 202 262 69 236 268 228 205 225 225 220 217 214 211 214 208 205 203 198 197 197 190 192 191 193 191 201 209 206 213 195 204 192 204 216
219 213 216 171 218 193 198 236 225 234 248 349 162 238 246 189 229 244 240 233 214 205 207 206 204 202 196 195 194 191 189 193 192 195 195 200 205 209 214 208 211 210 215 207
184 232 232 221 205 201 162 210 279 221 140 262 265 264 276 284 239 214 236 216 209 205 202 203 200 202 195 192 192 192 188 193 191 195 189 197 204 209 212 209 206 207 204 197
210 256 206 50 146 79 215 152 181 220 230 247 208 269 261 293 286 256 225 221 215 201 204 204 201 201 196 194 191 194 190 189 192 195 195 196 202 206 212 201 200 199 191 184
175 230 178 175 202 204 167 192 104 199 242 263 270 258 240 255 265 275 259 250 216 199 196 198 199 202 194 192 189 192 190 188 189 196 194 196 197 203 205 204 193 198 186 182
183 194 218 215 69 281 222 216 216 233 212 246 290 262 267 258 268 267 255 262 221 211 194 196 194 193 191 190 188 190 188 191 191 190 184 190 190 197 202 201 190 189 186 180
167 205 199 176 156 165 215 194 225 245 260 233 251 261 262 268 248 256 253 237 214 198 189 191 192 192 194 188 182 183 184 192 186 186 188 184 189 192 206 200 189 181 181 181
210 177 247 251 96 37 195 197 207 214 227 243 239 257 275 268 261 258 240 221 197 204 183 188 195 197 196 189 185 185 186 184 179 185 188 185 186 192 200 199 185 179 180 181
301 237 206 251 252 250 254 235 193 210 229 218 251 221 263 268 266 283 277 177 180 191 196 191 196 196 187 185 184 183 185 176 174 176 182 186 186 182 186 193 184 178 178 182
357 283 287 272 181 205 235 238 222 220 232 241 262 271 258 271 256 265 252 245 192 200 202 201 195 188 187 187 181 178 179 178 173 179 186 181 182 179 183 191 181 176 179 177
313 300 269 255 314 295 243 238 217 212 219 236 221 240 277 281 289 276 258 215 218 207 197 189 191 195 192 188 177 177 178 173 180 182 183 182 184 186 180 188 182 180 181 176
270 296 282 283 302 245 288 274 247 236 256 227 259 310 332 310 292 281 263 235 230 209 207 201 191 197 197 186 183 171 172 175 180 181 182 184 185 192 180 187 189 183 180 182
216 226 240 248 248 303 255 51 77 134 126 29 335 327 331 330 304 279 241 222 221 211 207 203 197 183 178 174 167 165 171 176 180 185 187 186 184 186 185 194 192 189 184 185
177 232 257 175 241 239 216 116 186 189 205 10 345 332 334 329 282 276 1 300 220 211 207 194 187 176 174 171 166 167 175 178 186 188 192 187 183 183 190 193 186 187 191 190
168 183 214 220 245 247 12 323 287 201 65 328 336 323 323 311 294 310 320 323 274 198 181 180 174 177 179 169 170 179 181 193 194 188 184 187 187 188 190 187 186 184 187 187
232 204 201 207 221 243 8 319 300 2 320 315 319 319 312 306 302 295 289 305 273 173 165 171 166 173 169 167 170 179 192 192 180 179 183 188 188 191 186 182 182 184 184 190
238 268 277 259 159 70 32 65 20 340 315 327 317 320 317 306 308 298 276 95 49 148 150 155 159 162 173 178 182 188 194 182 174 177 186 189 185 186 179 181 176 180 185 195
217 343 258 286 131 335 284 134 1 341 323 320 321 318 318 312 319 285 112 92 94 71 95 133 148 167 178 191 204 212 179 177 182 181 186 182 184 182 181 188 187 192 194 199
305 319 294 274 282 326 151 3 346 329 324 331 331 327 324 321 323 303 76 82 94 87 75 88 122 162 194 201 208 200 183 175 187 191 185 188 191 186 187 198 194 198 198 195
239 261 238 296 86 325 295 317 326 325 337 336 331 332 336 334 334 148 95 82 83 89 83 74 68 58 27 226 227 218 204 184 187 184 183 188 191 190 199 192 186 47 17 215